sat.trackr.live / text

‹ back to catalog

STARLINK-37886

NORAD 69943 · 2026-157A

PAYLOAD ACTIVE UNKNOWN

§ Identity

Operator
Country
US
Launch date
2026-07-09
Launch site
AFETR
Launch vehicle
Mass (kg)
RCS (m²)

Purposes: comms

External: N2YO · Heavens-Above · Gunter

§ Orbital elements

Epoch: 2026-09-20T05:09:28.477152Z

Period
93.85 min
Inclination
53.1543°
Eccentricity
0.0002579
Mean motion
15.34411798 rev/d
Perigee alt
460.9 km
Apogee alt
464.4 km
Semi-major
6,840.8 km
B*
4.5315e-4
RAAN
334.7241°
Arg perigee
98.2790°
Mean anomaly
261.8505°
Rev number
1,133

§ Raw data

STARLINK-378861 69943U 26157A   26263.21491293  .00014971  00000+0  45315-3 0  99942 69943  53.1543 334.7241 0002579  98.2790 261.8505 15.34411798 11334

JSON: /api/v1/satellites/69943 · /tle

For live sub-satellite position, see the globe view (requires WebGL).

§ Visibility from observer

Set your observer location to see the next 7 days of passes ≥ 10°. The values pass through the URL so the page stays shareable.

No JS? Fill the form by hand. The geolocation button needs JavaScript.